クリステンセン彗星

286P/Christensen (2022)

English version
Home page
Updated on November 26, 2022

---------------------------------------------------------------------

・ プロフィール

・ 写真集

・ 軌道要素

Epoch 2022 Aug. 9.0 TT = JDT 2459800.5
T 2022 May 12.66266 TT                                  Rudenko
q   2.3610012            (2000.0)            P               Q
n   0.11819133     Peri.   24.86875     +0.60892445     +0.74048149
a   4.1122450      Node   283.94900     -0.76795932     +0.46054240
e   0.4258608      Incl.   17.04175     -0.19861899     +0.48947713
P   8.34
From 152 observations 2005 June 3-2022 June 8, mean residual 0".6.

・ 光度変化

        m1 = 13.5 + 5 logΔ + 10.0 log r

---------------------------------------------------------------------

軌道要素はM.P.E.C. 2022-M21に掲載されたものです。
光度グラフはComet for Windowsで作成したものです。

---------------------------------------------------------------------

Copyright(C) Seiichi Yoshida (comet@aerith.net). All rights reserved.